• In Russia
  • List of Countries
  • For 7 days
  • Water Temperature
  • Satellite Maps
  • Weather Map
  • Weather Widgets
  • user-avatar
    Login

    Hourly Weather Milonow

    Today, 23 May, Wednesday

    Time Temperature Precipitation Wind Pressure Humidity
    00:00 +15°C° 0 mm 2 mps 750 mmHg 83%
    01:00 +15°C° 0 mm 2 mps 750 mmHg 84%
    02:00 +14°C° 0.1 mm 2 mps 750 mmHg 85%
    03:00 +14°C° 0.1 mm 2 mps 751 mmHg 87%
    04:00 +14°C° 0.1 mm 1 mps 751 mmHg 89%
    05:00 +15°C° 0 mm 2 mps 751 mmHg 85%
    06:00 +17°C° 0 mm 2 mps 751 mmHg 82%
    07:00 +19°C° 0 mm 2 mps 752 mmHg 75%
    08:00 +20°C° 0.2 mm 3 mps 752 mmHg 72%
    09:00 +22°C° 0.2 mm 3 mps 752 mmHg 68%
    10:00 +23°C° 0.2 mm 4 mps 752 mmHg 64%
    11:00 +23°C° 0.8 mm 4 mps 752 mmHg 64%
    12:00 +25°C° 0.8 mm 4 mps 752 mmHg 64%
    13:00 +25°C° 0.8 mm 4 mps 752 mmHg 63%
    14:00 +25°C° 0.6 mm 4 mps 752 mmHg 66%
    15:00 +23°C° 0.6 mm 4 mps 752 mmHg 69%
    16:00 +23°C° 0.6 mm 4 mps 752 mmHg 71%
    17:00 +22°C° 0.2 mm 4 mps 752 mmHg 74%
    18:00 +21°C° 0.2 mm 4 mps 753 mmHg 77%
    19:00 +20°C° 0.2 mm 3 mps 753 mmHg 80%
    20:00 +19°C° 0.1 mm 3 mps 753 mmHg 80%
    21:00 +18°C° 0.1 mm 4 mps 753 mmHg 80%
    22:00 +17°C° 0.1 mm 4 mps 754 mmHg 79%
    23:00 +17°C° 0 mm 3 mps 754 mmHg 80%

    Tomorrow, 24 May, Thursday

    Time Temperature Precipitation Wind Pressure Humidity
    00:00 +16°C° 0 mm 3 mps 754 mmHg 81%
    01:00 +14°C° 0 mm 3 mps 754 mmHg 82%
    02:00 +14°C° 0 mm 3 mps 754 mmHg 82%
    03:00 +14°C° 0 mm 3 mps 754 mmHg 83%
    04:00 +14°C° 0 mm 3 mps 754 mmHg 83%
    05:00 +14°C° 0 mm 3 mps 754 mmHg 81%
    06:00 +15°C° 0 mm 4 mps 755 mmHg 79%
    07:00 +17°C° 0 mm 4 mps 755 mmHg 78%
    08:00 +19°C° 0 mm 4 mps 755 mmHg 73%
    09:00 +20°C° 0 mm 5 mps 755 mmHg 68%
    10:00 +21°C° 0 mm 5 mps 755 mmHg 63%
    11:00 +22°C° 0 mm 5 mps 755 mmHg 61%
    12:00 +23°C° 0 mm 5 mps 754 mmHg 58%
    13:00 +23°C° 0 mm 5 mps 754 mmHg 56%
    14:00 +23°C° 0 mm 5 mps 754 mmHg 57%
    15:00 +23°C° 0 mm 5 mps 754 mmHg 58%
    16:00 +23°C° 0 mm 5 mps 753 mmHg 59%
    17:00 +22°C° 0 mm 5 mps 753 mmHg 64%
    18:00 +21°C° 0 mm 4 mps 753 mmHg 70%
    19:00 +20°C° 0 mm 4 mps 753 mmHg 76%
    20:00 +18°C° 0 mm 3 mps 754 mmHg 79%
    21:00 +17°C° 0 mm 3 mps 754 mmHg 81%
    22:00 +16°C° 0 mm 3 mps 754 mmHg 83%
    23:00 +14°C° 0 mm 3 mps 754 mmHg 85%

    Day after tomorrow, 25 May, Friday

    Time Temperature Precipitation Wind Pressure Humidity
    00:00 +15°C° 0 mm 2 mps 754 mmHg 86%
    01:00 +14°C° 0 mm 2 mps 754 mmHg 88%
    02:00 +14°C° 0 mm 2 mps 754 mmHg 88%
    03:00 +13°C° 0 mm 2 mps 754 mmHg 89%
    04:00 +13°C° 0 mm 2 mps 754 mmHg 90%
    05:00 +14°C° 0 mm 2 mps 754 mmHg 86%
    06:00 +16°C° 0 mm 2 mps 754 mmHg 82%
    07:00 +18°C° 0 mm 3 mps 754 mmHg 77%
    08:00 +19°C° 0 mm 3 mps 754 mmHg 71%
    09:00 +21°C° 0 mm 4 mps 754 mmHg 65%
    10:00 +23°C° 0 mm 4 mps 754 mmHg 59%
    11:00 +23°C° 0.1 mm 4 mps 754 mmHg 57%
    12:00 +23°C° 0.1 mm 4 mps 753 mmHg 56%
    13:00 +25°C° 0.1 mm 4 mps 753 mmHg 54%
    14:00 +25°C° 0.3 mm 4 mps 753 mmHg 57%
    15:00 +23°C° 0.3 mm 4 mps 753 mmHg 59%
    16:00 +23°C° 0.3 mm 4 mps 753 mmHg 62%
    17:00 +22°C° 0.1 mm 3 mps 753 mmHg 68%
    18:00 +21°C° 0.1 mm 2 mps 753 mmHg 74%
    19:00 +19°C° 0.1 mm 2 mps 753 mmHg 80%
    20:00 +19°C° 0.3 mm 1 mps 753 mmHg 83%
    21:00 +18°C° 0.3 mm 1 mps 753 mmHg 86%
    22:00 +15°C° 0.3 mm 0 mps 753 mmHg 89%
    23:00 +14°C° 0 mm 0 mps 754 mmHg 90%

    26 May, Saturday

    Time Temperature Precipitation Wind Pressure Humidity
    00:00 +14°C° 0 mm 0 mps 754 mmHg 90%
    01:00 +15°C° 0 mm 1 mps 754 mmHg 90%
    02:00 +13°C° 0 mm 0 mps 754 mmHg 91%
    03:00 +13°C° 0 mm 0 mps 754 mmHg 91%
    04:00 +13°C° 0 mm 0 mps 754 mmHg 92%
    05:00 +14°C° 0 mm 0 mps 754 mmHg 88%
    06:00 +16°C° 0 mm 0 mps 754 mmHg 84%
    07:00 +20°C° 0 mm 1 mps 754 mmHg 80%
    08:00 +19°C° 0 mm 0 mps 754 mmHg 74%
    09:00 +21°C° 0 mm 0 mps 754 mmHg 68%
    10:00 +23°C° 0 mm 0 mps 754 mmHg 62%
    11:00 +23°C° 0 mm 0 mps 754 mmHg 58%
    12:00 +26°C° 0 mm 1 mps 754 mmHg 54%
    13:00 +27°C° 0 mm 1 mps 754 mmHg 51%
    14:00 +27°C° 0 mm 1 mps 754 mmHg 50%
    15:00 +27°C° 0 mm 1 mps 754 mmHg 50%
    16:00 +27°C° 0 mm 1 mps 753 mmHg 49%
    17:00 +26°C° 0 mm 1 mps 753 mmHg 55%
    18:00 +24°C° 0 mm 1 mps 754 mmHg 61%
    19:00 +23°C° 0 mm 1 mps 754 mmHg 67%
    20:00 +22°C° 0 mm 1 mps 754 mmHg 69%
    21:00 +21°C° 0 mm 1 mps 754 mmHg 71%
    22:00 +19°C° 0 mm 1 mps 754 mmHg 74%
    23:00 +19°C° 0 mm 1 mps 754 mmHg 76%

    27 May, Sunday

    Time Temperature Precipitation Wind Pressure Humidity
    00:00 +18°C° 0 mm 1 mps 754 mmHg 78%
    01:00 +16°C° 0 mm 0 mps 754 mmHg 80%
    02:00 +15°C° 0 mm 0 mps 754 mmHg 82%
    03:00 +15°C° 0 mm 0 mps 754 mmHg 83%
    04:00 +15°C° 0 mm 0 mps 754 mmHg 84%
    05:00 +17°C° 0 mm 0 mps 754 mmHg 80%
    06:00 +18°C° 0 mm 0 mps 754 mmHg 76%
    07:00 +20°C° 0 mm 0 mps 754 mmHg 71%
    08:00 +23°C° 0.1 mm 1 mps 754 mmHg 67%
    09:00 +25°C° 0.1 mm 1 mps 754 mmHg 63%
    10:00 +26°C° 0.1 mm 1 mps 754 mmHg 60%
    11:00 +27°C° 0.1 mm 1 mps 753 mmHg 56%
    12:00 +27°C° 0.1 mm 1 mps 753 mmHg 53%
    13:00 +28°C° 0.1 mm 1 mps 753 mmHg 50%
    14:00 +28°C° 0.1 mm 2 mps 753 mmHg 51%
    15:00 +28°C° 0.1 mm 2 mps 753 mmHg 53%
    16:00 +28°C° 0.1 mm 2 mps 752 mmHg 55%
    17:00 +26°C° 0.2 mm 2 mps 752 mmHg 62%
    18:00 +25°C° 0.2 mm 2 mps 752 mmHg 68%
    19:00 +24°C° 0.2 mm 2 mps 752 mmHg 75%
    20:00 +21°C° 0.2 mm 2 mps 752 mmHg 79%
    21:00 +20°C° 0.2 mm 2 mps 753 mmHg 84%
    22:00 +19°C° 0.2 mm 2 mps 753 mmHg 89%
    23:00 +18°C° 0.1 mm 2 mps 753 mmHg 90%

    28 May, Monday

    Time Temperature Precipitation Wind Pressure Humidity
    00:00 +18°C° 0.1 mm 2 mps 753 mmHg 91%
    01:00 +18°C° 0.1 mm 2 mps 753 mmHg 92%
    02:00 +17°C° 0.3 mm 2 mps 753 mmHg 93%
    03:00 +17°C° 0.3 mm 2 mps 753 mmHg 93%
    04:00 +16°C° 0.3 mm 2 mps 753 mmHg 93%
    05:00 +18°C° 0 mm 2 mps 753 mmHg 90%
    06:00 +19°C° 0 mm 2 mps 753 mmHg 86%
    07:00 +20°C° 0 mm 2 mps 753 mmHg 83%
    08:00 +23°C° 0 mm 2 mps 753 mmHg 77%
    09:00 +24°C° 0 mm 3 mps 753 mmHg 72%
    10:00 +26°C° 0 mm 3 mps 753 mmHg 67%
    11:00 +27°C° 0 mm 3 mps 753 mmHg 64%
    12:00 +27°C° 0 mm 3 mps 753 mmHg 62%
    13:00 +28°C° 0 mm 4 mps 753 mmHg 59%
    14:00 +28°C° 0.4 mm 4 mps 752 mmHg 61%
    15:00 +28°C° 0.4 mm 4 mps 752 mmHg 63%
    16:00 +27°C° 0.4 mm 4 mps 752 mmHg 65%
    17:00 +26°C° 0 mm 4 mps 752 mmHg 69%
    18:00 +25°C° 0 mm 3 mps 752 mmHg 73%
    19:00 +24°C° 0 mm 3 mps 752 mmHg 77%
    20:00 +22°C° 0 mm 4 mps 752 mmHg 78%
    21:00 +21°C° 0 mm 4 mps 753 mmHg 79%
    22:00 +20°C° 0 mm 4 mps 753 mmHg 80%
    23:00 +19°C° 0 mm 4 mps 753 mmHg 79%
    Show more